Location: Dötzum
(52.0808°N, 9.8063°E)
Time: 05:25:22
(UTC+00:00)

CZ-4C R/B - Pass Details

Date: 27 May 2022
Orbit: 582 x 1419 km, 63.4° (Epoch: 24 June)

Event Time Altitude Azimuth Distance (km) Brightness Sun altitude
Rises 00:47:02 0° 309° (NW) 3,905 5.9 -14.1°
Reaches altitude 10° 00:50:11 10° 296° (WNW) 3,078 5.2 -13.9°
Maximum altitude 00:55:41 23° 248° (WSW) 2,444 4.2 -13.6°
Enters shadow 00:59:27 17° 215° (SW) 2,896 4.3 -13.4°
